Weather in Choma

Zambia     16°48′47″S   26°58′53″E
temp.,
°C
wind,
m/s
gust,
m/s
humid.,
%
clouds,
%
prec.,
mm/h
press.,
hPa
HPBL,
m
27 october, wed
wed2723:00+22se23447 0.0 101543
02:00+22e41243100 0.0 1015606
05:00+21e4136366 0.0 1016665
08:00+25ene6104916 0.0 10171120
11:00+31ene67325 0.0 10152370
14:00+33e672230 0.0 10113779
17:00+31ese68240 0.0 10102577
20:00+26e411370 0.0 1013581
28 october, thu
thu2823:00+23e4124958 0.0 1015775
02:00+22ene5125324 0.0 1015948
05:00+20e512595 0.0 1016855
08:00+23ene6104764 0.0 10171218
11:00+29ene562816 0.0 10152087
14:00+32e54225 0.0 10102983
17:00+30ese65251 0.0 10092237
20:00+23ese26402 0.0 1012130
29 october, fri
fri2923:00+21e264454 0.0 1013111
02:00+20e28530 0.0 1012187
05:00+19e27595 0.0 1014255
08:00+23ene46430 0.0 1015817
11:00+31ene33262 0.0 10121972
14:00+34ese431999 0.0 10073489
17:00+31ese642313 0.0 10071665
20:00+24ese263947 0.0 1010122
30 october, sat
sat3023:00+23se223955 0.0 101023
02:00+22se224287 0.0 100913
05:00+19se25505 0.0 101193
08:00+27ene243254 0.0 1011663
11:00+34e242151 0.0 10093092
14:00+31nnw222860 0.4 1006969
17:00+31sse432533 0.1 10061750
20:00+24sw11435 0.3 100811
31 october, sun
sun3123:00+24s114216 0.0 100911
02:00+22se24465 0.0 100867
05:00+22se22468 0.0 100922
08:00+28ne45295 0.0 1010768
11:00+35ne321828 0.0 10083608
14:00+34ene331845 0.1 10052910
17:00+25ne364476 0.6 1008220
20:00+24w23445 0.6 100952